User: anonymous   Login
Location: NJAA Observatory
(40.6819°N, 74.8979°W)
Time: 07:12:08
(UTC-05:00)
Language:

S-56A Canister/Altair - Orbit

View from above orbital plane
View from above orbital plane
View from above satellite
View from above satellite

Ground track
Ground track

The orbit data is extracted from the following two-line orbital elements,

1 00082U 61004B   14349.43576431  .00000015  00000-0  61646-4 0  7435
2 00082 038.8559 081.6007 1175329 101.2562 272.2246 12.25664055561011
Epoch (UTC): 15 December 2014 10:27:30
Eccentricity: 0.1175329
inclination: 38.8559°
perigee height: 634 km
apogee height: 2502 km
right ascension of ascending node: 81.6007°
argument of perigee: 101.2562°
revolutions per day: 12.25664055
mean anomaly at epoch: 272.2246°
orbit number at epoch: 56101

The dashed part of the orbit path shows where the satellite is in the earth's shadow,  

DLR